Date String (YYYY-MM-DD hh:mm:ss) UTC,Instrument flags,Ambient pressure (hPa),Sample flow (lpm),Bypass flow (lpm),Sample temperature (°C),Ambient temperature (°C),ASC tube jacket temperature (°C),LED temperature (°C),Box temperature (°C),Sample RH (%),Span deviation,Mass concentration (μg/m³),Mass concentration (μg/m³),Mass concentration (μg/m³)
DateTimeUTC,F1_M11,P_M11,Q1_M11,Q2_M11,T1_M11,T2_M11,T3_M11,T4_M11,T5_M11,U1_M11,ZSPAN_M11,X2_M11,X0_M11,X1_M11
2023-02-28 00:00:00,,0815.5,5.00,0.00,22.0,20.5,00.0,30.8,23.7,08.7,0000.0,0000.57,0001.58,0000.30
2023-02-28 00:01:00,,0815.4,5.00,0.00,22.0,20.4,00.0,30.8,23.7,09.1,0000.0,0000.60,0001.13,0000.30
2023-02-28 00:02:00,,0815.4,4.99,0.00,22.0,20.4,00.0,30.8,23.7,09.0,0000.0,0000.56,0001.01,0000.30
2023-02-28 00:03:00,,0815.4,5.00,0.00,21.9,20.4,00.0,30.8,23.7,09.1,0000.0,0000.53,0000.93,0000.31
2023-02-28 00:04:00,,0815.4,4.99,0.00,21.9,20.4,00.0,30.8,23.7,09.0,0000.0,0000.52,0000.87,0000.31
2023-02-28 00:05:00,,0815.4,5.00,0.00,21.9,20.4,00.0,30.8,23.7,08.9,0000.0,0000.52,0000.85,0000.31
2023-02-28 00:06:00,,0815.4,5.01,0.00,21.9,20.4,00.0,30.7,23.7,09.0,0000.0,0000.52,0000.87,0000.32
2023-02-28 00:07:00,,0815.4,5.00,0.00,21.9,20.6,00.0,30.7,23.7,09.0,0000.0,0000.52,0000.86,0000.32
2023-02-28 00:08:00,,0815.5,5.00,0.00,22.0,21.6,00.0,30.7,24.0,09.2,0000.0,0000.53,0000.91,0000.32
2023-02-28 00:09:00,,0815.7,5.00,0.00,22.2,22.7,00.0,30.7,24.3,09.2,0000.0,0000.52,0000.91,0000.32
2023-02-28 00:10:00,,0815.4,5.02,0.00,22.3,22.9,00.0,30.8,24.4,09.0,0000.0,0000.56,0001.01,0000.32
2023-02-28 00:11:00,,0815.5,4.98,0.00,22.3,22.4,00.0,30.9,24.3,08.9,0000.0,0000.63,0001.20,0000.33
2023-02-28 00:12:00,,0815.6,4.98,0.00,22.3,22.0,00.0,30.9,24.3,08.9,0000.0,0000.62,0001.25,0000.34
2023-02-28 00:13:00,,0815.5,4.99,0.00,22.3,21.7,00.0,30.9,24.2,09.1,0000.0,0000.66,0001.40,0000.34
2023-02-28 00:14:00,,0815.5,4.99,0.00,22.3,21.5,00.0,30.9,24.2,09.0,0000.0,0000.67,0001.45,0000.33
2023-02-28 00:15:00,,0815.4,4.99,0.00,22.3,21.3,00.0,30.9,24.1,08.8,0000.0,0000.65,0001.46,0000.32
2023-02-28 00:16:00,,0815.4,5.00,0.00,22.3,21.1,00.0,31.0,24.1,08.8,0000.0,0000.85,0003.97,0000.34
2023-02-28 00:17:00,,0815.4,5.00,0.00,22.3,21.0,00.0,31.0,24.1,08.8,0000.0,0000.98,0004.62,0000.35
2023-02-28 00:18:00,,0815.4,5.01,0.00,22.3,20.9,00.0,31.0,24.0,08.8,0000.0,0001.04,0004.71,0000.35
2023-02-28 00:19:00,,0815.5,5.01,0.00,22.3,20.8,00.0,31.0,24.0,08.7,0000.0,0001.04,0004.69,0000.35
2023-02-28 00:20:00,,0815.4,4.99,0.00,22.2,20.7,00.0,31.0,23.9,08.8,0000.0,0001.16,0006.08,0000.36
2023-02-28 00:21:00,,0815.4,5.01,0.00,22.2,20.6,00.0,30.9,23.9,08.9,0000.0,0001.62,0008.60,0000.39
2023-02-28 00:22:00,,0815.5,5.01,0.00,22.2,20.6,00.0,30.9,23.9,08.8,0000.0,0002.33,0011.08,0000.45
2023-02-28 00:23:00,,0815.6,5.00,0.00,22.2,20.5,00.0,30.9,23.9,08.9,0000.0,0002.67,0012.00,0000.47
2023-02-28 00:24:00,,0815.8,5.00,0.00,22.1,20.5,00.0,30.9,23.8,08.8,0000.0,0002.68,0011.98,0000.48
2023-02-28 00:25:00,,0815.7,5.01,0.00,22.1,20.4,00.0,30.9,23.8,08.8,0000.0,0002.72,0012.08,0000.48
2023-02-28 00:26:00,,0815.5,5.00,0.00,22.1,20.4,00.0,30.9,23.8,08.9,0000.0,0002.81,0012.88,0000.49
2023-02-28 00:27:00,,0815.4,5.01,0.00,22.1,20.4,00.0,30.9,23.7,08.8,0000.0,0002.62,0011.51,0000.47
2023-02-28 00:28:00,,0815.4,4.99,0.00,22.1,20.4,00.0,30.9,23.7,08.8,0000.0,0002.55,0011.34,0000.46
2023-02-28 00:29:00,,0815.4,5.00,0.00,22.0,20.3,00.0,30.9,23.7,08.9,0000.0,0002.54,0011.40,0000.46
2023-02-28 00:30:00,,0815.6,4.99,0.00,22.0,20.3,00.0,30.8,23.7,08.9,0000.0,0002.55,0012.17,0000.47
2023-02-28 00:31:00,,0815.6,4.99,0.00,22.0,20.3,00.0,30.8,23.7,08.9,0000.0,0002.41,0012.47,0000.46
2023-02-28 00:32:00,,0815.9,5.00,0.00,22.0,20.3,00.0,30.8,23.6,08.9,0000.0,0001.89,0010.45,0000.43
2023-02-28 00:33:00,,0815.7,5.01,0.00,22.0,20.2,00.0,30.8,23.6,08.8,0000.0,0001.16,0007.95,0000.37
2023-02-28 00:34:00,,0815.6,5.00,0.00,21.9,20.2,00.0,30.8,23.5,08.8,0000.0,0000.88,0007.52,0000.35
2023-02-28 00:35:00,,0815.5,5.01,0.00,21.9,20.1,00.0,30.7,23.5,08.9,0000.0,0000.88,0007.85,0000.35
2023-02-28 00:36:00,,0815.5,5.00,0.00,21.9,20.1,00.0,30.7,23.5,08.9,0000.0,0000.87,0007.78,0000.35
2023-02-28 00:37:00,,0815.9,5.00,0.00,21.9,20.5,00.0,30.7,23.6,08.9,0000.0,0000.81,0006.82,0000.35
2023-02-28 00:38:00,,0815.9,5.02,0.00,22.0,21.5,00.0,30.7,23.9,08.7,0000.0,0000.84,0006.82,0000.36
2023-02-28 00:39:00,,0815.7,5.01,0.00,22.1,22.6,00.0,30.7,24.2,08.7,0000.0,0000.81,0006.66,0000.36
2023-02-28 00:40:00,,0816.0,4.97,0.00,22.2,22.6,00.0,30.8,24.3,08.6,0000.0,0000.76,0006.39,0000.37
2023-02-28 00:41:00,,0815.9,4.99,0.00,22.2,22.1,00.0,30.8,24.2,08.5,0000.0,0000.78,0005.14,0000.37
2023-02-28 00:42:00,,0815.9,5.00,0.00,22.2,21.7,00.0,30.8,24.0,08.5,0000.0,0000.84,0003.16,0000.37
2023-02-28 00:43:00,,0815.8,5.00,0.00,22.2,21.4,00.0,30.9,23.9,08.4,0000.0,0000.88,0003.27,0000.38
2023-02-28 00:44:00,,0815.8,5.00,0.00,22.2,21.2,00.0,30.9,23.9,08.5,0000.0,0000.88,0003.20,0000.38
2023-02-28 00:45:00,,0815.8,5.00,0.00,22.2,21.0,00.0,30.9,23.9,08.5,0000.0,0000.87,0002.37,0000.38
2023-02-28 00:46:00,,0816.1,4.99,0.00,22.2,20.9,00.0,30.9,23.8,08.4,0000.0,0000.87,0001.94,0000.38
2023-02-28 00:47:00,,0816.1,5.00,0.00,22.1,20.7,00.0,30.9,23.8,08.4,0000.0,0000.84,0001.82,0000.38
2023-02-28 00:48:00,,0815.8,5.00,0.00,22.1,20.6,00.0,30.9,23.7,08.5,0000.0,0000.84,0002.20,0000.37
2023-02-28 00:49:00,,0815.8,5.00,0.00,22.1,20.5,00.0,30.8,23.7,08.5,0000.0,0000.80,0002.23,0000.37
2023-02-28 00:50:00,,0815.6,5.00,0.00,22.0,20.4,00.0,30.8,23.6,08.5,0000.0,0000.83,0002.28,0000.38
2023-02-28 00:51:00,,0815.5,5.00,0.00,22.0,20.4,00.0,30.8,23.5,08.5,0000.0,0000.88,0002.41,0000.39
2023-02-28 00:52:00,,0815.6,5.01,0.00,22.0,20.3,00.0,30.8,23.5,08.5,0000.0,0000.92,0002.47,0000.39
2023-02-28 00:53:00,,0815.6,5.00,0.00,21.9,20.2,00.0,30.8,23.5,08.6,0000.0,0000.91,0002.41,0000.40
2023-02-28 00:54:00,,0816.0,5.00,0.00,21.9,20.2,00.0,30.8,23.4,08.5,0000.0,0000.92,0002.46,0000.40
2023-02-28 00:55:00,,0816.2,4.99,0.00,21.9,20.1,00.0,30.8,23.4,08.6,0000.0,0000.92,0002.50,0000.41
2023-02-28 00:56:00,,0815.9,5.00,0.00,21.9,20.1,00.0,30.7,23.4,08.6,0000.0,0000.96,0002.57,0000.43
2023-02-28 00:57:00,,0815.7,5.00,0.00,21.8,20.0,00.0,30.7,23.4,08.5,0000.0,0000.95,0003.19,0000.43
2023-02-28 00:58:00,,0815.9,5.01,0.00,21.9,20.6,00.0,30.7,23.6,08.6,0000.0,0000.96,0003.22,0000.44
2023-02-28 00:59:00,,0816.1,4.98,0.00,22.0,21.8,00.0,30.7,23.9,08.5,0000.0,0000.94,0002.75,0000.45
